When you browse on this site, cookies collect data to enhance your experience and personalize the content and advertising you see.
Visit our Privacy Policy to learn more. By continuing to use the site, you agree to this use of cookies and data.
  • En España
  • Lista de países
  • Para 7 días
  • Temperatura del agua
  • El tiempo en el mapa
  • Informadores
  • user-avatar
    Iniciar sesión

    Tiempo cada hora Sharm el-Szeikh

    Hoy, 23 Octubre, Miércoles

    Tiempo Temperatura Precipitaciones Viento Presión Humedad
    00:00 +27°C° 0 mm 5 mps 752 mmHg 42%
    01:00 +27°C° 0 mm 5 mps 752 mmHg 43%
    02:00 +26°C° 0 mm 5 mps 752 mmHg 45%
    03:00 +26°C° 0 mm 5 mps 752 mmHg 45%
    04:00 +26°C° 0 mm 5 mps 752 mmHg 46%
    05:00 +25°C° 0 mm 5 mps 752 mmHg 47%
    06:00 +27°C° 0 mm 4 mps 753 mmHg 43%
    07:00 +28°C° 0 mm 4 mps 753 mmHg 40%
    08:00 +30°C° 0 mm 4 mps 753 mmHg 36%
    09:00 +32°C° 0 mm 5 mps 753 mmHg 34%
    10:00 +33°C° 0 mm 5 mps 753 mmHg 31%
    11:00 +34°C° 0 mm 6 mps 753 mmHg 28%
    12:00 +35°C° 0 mm 6 mps 753 mmHg 27%
    13:00 +35°C° 0 mm 6 mps 752 mmHg 25%
    14:00 +35°C° 0 mm 6 mps 751 mmHg 24%
    15:00 +34°C° 0 mm 5 mps 752 mmHg 29%
    16:00 +32°C° 0 mm 5 mps 752 mmHg 35%
    17:00 +29°C° 0 mm 5 mps 752 mmHg 40%
    18:00 +28°C° 0 mm 5 mps 753 mmHg 40%
    19:00 +28°C° 0 mm 5 mps 753 mmHg 41%
    20:00 +27°C° 0 mm 5 mps 753 mmHg 41%
    21:00 +26°C° 0 mm 5 mps 754 mmHg 42%
    22:00 +25°C° 0 mm 5 mps 754 mmHg 43%
    23:00 +25°C° 0 mm 5 mps 754 mmHg 43%

    Mañana, 24 Octubre, Jueves

    Tiempo Temperatura Precipitaciones Viento Presión Humedad
    00:00 +23°C° 0 mm 5 mps 754 mmHg 47%
    01:00 +22°C° 0 mm 5 mps 754 mmHg 51%
    02:00 +22°C° 0 mm 4 mps 753 mmHg 55%
    03:00 +21°C° 0 mm 4 mps 753 mmHg 57%
    04:00 +21°C° 0 mm 4 mps 753 mmHg 58%
    05:00 +20°C° 0 mm 4 mps 753 mmHg 59%
    06:00 +23°C° 0 mm 4 mps 754 mmHg 52%
    07:00 +26°C° 0 mm 3 mps 754 mmHg 44%
    08:00 +28°C° 0 mm 3 mps 754 mmHg 37%
    09:00 +29°C° 0 mm 3 mps 754 mmHg 32%
    10:00 +31°C° 0 mm 3 mps 754 mmHg 27%
    11:00 +33°C° 0 mm 4 mps 754 mmHg 22%
    12:00 +33°C° 0 mm 4 mps 754 mmHg 22%
    13:00 +33°C° 0 mm 4 mps 753 mmHg 22%
    14:00 +33°C° 0 mm 4 mps 753 mmHg 22%
    15:00 +32°C° 0 mm 4 mps 753 mmHg 26%
    16:00 +29°C° 0 mm 5 mps 753 mmHg 31%
    17:00 +27°C° 0 mm 5 mps 753 mmHg 35%
    18:00 +27°C° 0 mm 5 mps 753 mmHg 36%
    19:00 +26°C° 0 mm 5 mps 754 mmHg 36%
    20:00 +25°C° 0 mm 5 mps 754 mmHg 37%
    21:00 +23°C° 0 mm 5 mps 754 mmHg 37%
    22:00 +23°C° 0 mm 5 mps 754 mmHg 38%
    23:00 +22°C° 0 mm 5 mps 754 mmHg 38%

    Pasado mañana, 25 Octubre, Viernes

    Tiempo Temperatura Precipitaciones Viento Presión Humedad
    00:00 +22°C° 0 mm 4 mps 754 mmHg 41%
    01:00 +21°C° 0 mm 4 mps 754 mmHg 43%
    02:00 +20°C° 0 mm 3 mps 754 mmHg 45%
    03:00 +20°C° 0 mm 3 mps 754 mmHg 46%
    04:00 +20°C° 0 mm 3 mps 754 mmHg 47%
    05:00 +19°C° 0 mm 3 mps 754 mmHg 47%
    06:00 +22°C° 0 mm 3 mps 754 mmHg 43%
    07:00 +25°C° 0 mm 3 mps 754 mmHg 38%
    08:00 +27°C° 0 mm 3 mps 755 mmHg 34%
    09:00 +28°C° 0 mm 3 mps 755 mmHg 32%
    10:00 +30°C° 0 mm 4 mps 755 mmHg 30%
    11:00 +32°C° 0 mm 5 mps 755 mmHg 28%
    12:00 +32°C° 0 mm 5 mps 754 mmHg 30%
    13:00 +32°C° 0 mm 5 mps 754 mmHg 32%
    14:00 +30°C° 0 mm 6 mps 753 mmHg 34%
    15:00 +29°C° 0 mm 5 mps 753 mmHg 35%
    16:00 +28°C° 0 mm 5 mps 754 mmHg 37%
    17:00 +27°C° 0 mm 5 mps 754 mmHg 39%
    18:00 +26°C° 0 mm 4 mps 754 mmHg 41%
    19:00 +25°C° 0 mm 4 mps 754 mmHg 43%
    20:00 +23°C° 0 mm 4 mps 755 mmHg 45%
    21:00 +23°C° 0 mm 4 mps 755 mmHg 47%
    22:00 +22°C° 0 mm 3 mps 755 mmHg 49%
    23:00 +22°C° 0 mm 3 mps 755 mmHg 51%

    26 Octubre, Sábado

    Tiempo Temperatura Precipitaciones Viento Presión Humedad
    00:00 +21°C° 0 mm 3 mps 755 mmHg 52%
    01:00 +21°C° 0 mm 3 mps 755 mmHg 53%
    02:00 +21°C° 0 mm 3 mps 755 mmHg 54%
    03:00 +21°C° 0 mm 3 mps 755 mmHg 55%
    04:00 +21°C° 0 mm 3 mps 755 mmHg 56%
    05:00 +20°C° 0 mm 3 mps 755 mmHg 57%
    06:00 +22°C° 0 mm 3 mps 755 mmHg 53%
    07:00 +25°C° 0 mm 3 mps 755 mmHg 48%
    08:00 +27°C° 0 mm 3 mps 756 mmHg 44%
    09:00 +28°C° 0 mm 3 mps 756 mmHg 42%
    10:00 +29°C° 0 mm 4 mps 755 mmHg 40%
    11:00 +30°C° 0 mm 4 mps 755 mmHg 38%
    12:00 +30°C° 0 mm 5 mps 755 mmHg 39%
    13:00 +30°C° 0 mm 5 mps 754 mmHg 39%
    14:00 +32°C° 0 mm 6 mps 754 mmHg 40%
    15:00 +29°C° 0 mm 6 mps 754 mmHg 43%
    16:00 +28°C° 0 mm 5 mps 754 mmHg 46%
    17:00 +27°C° 0 mm 5 mps 754 mmHg 49%
    18:00 +25°C° 0 mm 5 mps 754 mmHg 53%
    19:00 +23°C° 0 mm 4 mps 754 mmHg 57%
    20:00 +22°C° 0 mm 3 mps 755 mmHg 61%
    21:00 +22°C° 0 mm 4 mps 755 mmHg 62%
    22:00 +21°C° 0 mm 4 mps 755 mmHg 62%
    23:00 +21°C° 0 mm 4 mps 755 mmHg 62%

    27 Octubre, Domingo

    Tiempo Temperatura Precipitaciones Viento Presión Humedad
    00:00 +21°C° 0 mm 4 mps 754 mmHg 62%
    01:00 +21°C° 0 mm 4 mps 754 mmHg 63%
    02:00 +21°C° 0 mm 4 mps 754 mmHg 63%
    03:00 +21°C° 0 mm 4 mps 754 mmHg 64%
    04:00 +21°C° 0 mm 4 mps 754 mmHg 65%
    05:00 +20°C° 0 mm 5 mps 754 mmHg 66%
    06:00 +22°C° 0 mm 4 mps 755 mmHg 60%
    07:00 +25°C° 0 mm 4 mps 755 mmHg 54%
    08:00 +27°C° 0 mm 4 mps 755 mmHg 47%
    09:00 +28°C° 0 mm 4 mps 755 mmHg 44%
    10:00 +29°C° 0 mm 4 mps 755 mmHg 41%
    11:00 +30°C° 0 mm 4 mps 755 mmHg 38%
    12:00 +32°C° 0 mm 4 mps 754 mmHg 38%
    13:00 +32°C° 0 mm 4 mps 753 mmHg 38%
    14:00 +32°C° 0 mm 4 mps 753 mmHg 37%
    15:00 +30°C° 0 mm 4 mps 753 mmHg 43%
    16:00 +28°C° 0 mm 4 mps 753 mmHg 48%
    17:00 +27°C° 0 mm 4 mps 753 mmHg 54%
    18:00 +26°C° 0 mm 4 mps 753 mmHg 54%
    19:00 +25°C° 0 mm 3 mps 753 mmHg 54%
    20:00 +24°C° 0 mm 2 mps 754 mmHg 54%
    21:00 +25°C° 0 mm 3 mps 754 mmHg 51%
    22:00 +25°C° 0 mm 3 mps 754 mmHg 48%
    23:00 +25°C° 0 mm 4 mps 754 mmHg 45%

    28 Octubre, Lunes

    Tiempo Temperatura Precipitaciones Viento Presión Humedad
    00:00 +23°C° 0 mm 4 mps 754 mmHg 46%
    01:00 +23°C° 0 mm 4 mps 753 mmHg 46%
    02:00 +22°C° 0 mm 4 mps 753 mmHg 47%
    03:00 +21°C° 0 mm 4 mps 753 mmHg 49%
    04:00 +21°C° 0 mm 4 mps 753 mmHg 52%
    05:00 +20°C° 0 mm 4 mps 753 mmHg 54%
    06:00 +22°C° 0 mm 4 mps 754 mmHg 47%
    07:00 +26°C° 0 mm 4 mps 754 mmHg 41%
    08:00 +28°C° 0 mm 4 mps 754 mmHg 34%
    09:00 +29°C° 0 mm 4 mps 754 mmHg 33%
    10:00 +32°C° 0 mm 4 mps 754 mmHg 32%
    11:00 +33°C° 0 mm 4 mps 754 mmHg 31%
    12:00 +33°C° 0 mm 4 mps 754 mmHg 31%
    13:00 +33°C° 0 mm 4 mps 753 mmHg 32%
    14:00 +33°C° 0 mm 4 mps 753 mmHg 32%
    15:00 +32°C° 0 mm 4 mps 753 mmHg 38%
    16:00 +29°C° 0 mm 4 mps 753 mmHg 43%
    17:00 +27°C° 0 mm 4 mps 753 mmHg 48%
    18:00 +26°C° 0 mm 4 mps 753 mmHg 50%
    19:00 +26°C° 0 mm 4 mps 754 mmHg 51%
    20:00 +25°C° 0 mm 4 mps 754 mmHg 52%
    21:00 +25°C° 0 mm 4 mps 754 mmHg 48%
    22:00 +23°C° 0 mm 4 mps 754 mmHg 45%
    23:00 +23°C° 0 mm 4 mps 754 mmHg 41%

    29 Octubre, Martes

    Tiempo Temperatura Precipitaciones Viento Presión Humedad
    00:00 +22°C° 0 mm 4 mps 754 mmHg 42%
    01:00 +22°C° 0 mm 4 mps 754 mmHg 43%
    02:00 +21°C° 0 mm 4 mps 754 mmHg 44%
    03:00 +21°C° 0 mm 4 mps 754 mmHg 45%
    04:00 +20°C° 0 mm 4 mps 754 mmHg 47%
    05:00 +20°C° 0 mm 4 mps 754 mmHg 48%
    06:00 +22°C° 0 mm 4 mps 754 mmHg 42%
    07:00 +25°C° 0 mm 4 mps 755 mmHg 36%
    08:00 +28°C° 0 mm 4 mps 755 mmHg 30%
    09:00 +29°C° 0 mm 4 mps 755 mmHg 29%
    10:00 +30°C° 0 mm 4 mps 755 mmHg 28%
    11:00 +33°C° 0 mm 4 mps 754 mmHg 27%
    12:00 +33°C° 0 mm 4 mps 754 mmHg 27%
    13:00 +33°C° 0 mm 4 mps 754 mmHg 28%
    14:00 +33°C° 0 mm 4 mps 753 mmHg 29%
    15:00 +30°C° 0 mm 3 mps 753 mmHg 36%
    16:00 +28°C° 0 mm 3 mps 753 mmHg 43%
    17:00 +26°C° 0 mm 3 mps 753 mmHg 49%
    18:00 +26°C° 0 mm 3 mps 754 mmHg 49%
    19:00 +25°C° 0 mm 3 mps 754 mmHg 48%
    20:00 +25°C° 0 mm 4 mps 754 mmHg 47%
    21:00 +23°C° 0 mm 4 mps 754 mmHg 47%
    22:00 +23°C° 0 mm 4 mps 754 mmHg 47%
    23:00 +22°C° 0 mm 4 mps 754 mmHg 47%
    Mostrar más